Weather History for West Palm Beach, FL

Change the Weather History Date:

Thursday, October 27, 2011

  Actual Average Record
Temperature  
Mean Temperature 76 °F 76 °F  
Max Temperature 84 °F 83 °F 90 °F (1997)
Min Temperature 67 °F 69 °F 52 °F (1890)
Degree Days  
Heating Degree Days 0 0  
Month to date heating degree days 0 0  
Since 1 July heating degree days 0 0  
Cooling Degree Days 11 11  
Month to date cooling degree days 348 370  
Year to date cooling degree days 4240 3578  
Growing Degree Days 24 (Base 50)    
Moisture  
Dew Point 70 °F    
Average Humidity 81    
Maximum Humidity 93    
Minimum Humidity 69    
Precipitation  
Precipitation 0.00 in 0.16 in 3.03 in (1915)
Month to date precipitation 3.54 4.57  
Year to date precipitation 39.31 53.64  
Snow  
Snow 0.00 in - - ()
Month to date snowfall 0.0  
Since 1 July snowfall 0.0  
Since 1 September snowfall 0.0  
Snow Depth 0.00 in    
Sea Level Pressure  
Sea Level Pressure 29.92 in    
Wind  
Wind Speed 6 mph (ESE)    
Max Wind Speed 17 mph    
Max Gust Speed 21 mph    
Visibility 10 miles    
Events      
T = Trace of Precipitation, MM = Missing Value Source: NWS Daily Summary

Daily Weather History Graph

Daily Weather History Graph

Search for Another Location

Airport:

Trip Planner

Search our weather history database for the weather conditions in past years. The results will help you decide how hot, cold, wet, or windy it might be!

Date:

Astronomy

Oct. 27, 2011 Rise Set
Actual Time 7:26 AM EDT 6:41 PM EDT
Civil Twilight 7:02 AM EDT 7:05 PM EDT
Nautical Twilight 6:35 AM EDT 7:32 PM EDT
Astronomical Twilight 6:08 AM EDT 7:59 PM EDT
Moon 8:16 AM EDT (10/27) 7:22 PM EDT (10/27)
Length of Visible Light 12h 02m
Length of Day
11h 15m
New Moon, 1% of the Moon is Illuminated
Oct 27
New Moon
Nov 2
First Quarter
Nov 10
Full
Nov 18
Last Quarter
Nov 25
New

Hourly Weather History & Observations

Time (EDT) Temp. Heat Index Dew Point Humidity Pressure Visibility Wind Dir Wind Speed Gust Speed Precip Events Conditions
12:53 AM 68.0 °F - 64.0 °F 87% 29.96 in 10.0 mi Calm Calm - N/A   Partly Cloudy
1:53 AM 68.0 °F - 64.0 °F 87% 29.95 in 10.0 mi Calm Calm - N/A   Partly Cloudy
2:53 AM 66.9 °F - 64.9 °F 93% 29.94 in 10.0 mi Calm Calm - N/A   Partly Cloudy
3:53 AM 68.0 °F - 64.9 °F 90% 29.92 in 10.0 mi Calm Calm - N/A   Partly Cloudy
4:53 AM 68.0 °F - 64.0 °F 87% 29.92 in 10.0 mi Calm Calm - N/A   Partly Cloudy
5:53 AM 69.1 °F - 66.0 °F 90% 29.91 in 10.0 mi North 3.5 mph - N/A   Partly Cloudy
6:53 AM 69.1 °F - 66.0 °F 90% 29.92 in 10.0 mi Calm Calm - N/A   Scattered Clouds
7:53 AM 69.1 °F - 66.9 °F 93% 29.94 in 10.0 mi NNW 3.5 mph - N/A   Mostly Cloudy
8:53 AM 72.0 °F - 69.1 °F 91% 29.94 in 10.0 mi Calm Calm - N/A   Mostly Cloudy
9:53 AM 82.0 °F 86.3 °F 71.1 °F 69% 29.95 in 10.0 mi ESE 10.4 mph - N/A   Mostly Cloudy
10:53 AM 82.9 °F 87.5 °F 71.1 °F 67% 29.95 in 10.0 mi ESE 10.4 mph - N/A   Mostly Cloudy
11:53 AM 81.0 °F 84.9 °F 71.1 °F 72% 29.95 in 10.0 mi ESE 11.5 mph - N/A   Mostly Cloudy
12:53 PM 81.0 °F 84.9 °F 71.1 °F 72% 29.93 in 10.0 mi SE 13.8 mph 19.6 mph N/A   Mostly Cloudy
1:53 PM 82.9 °F 88.0 °F 72.0 °F 69% 29.90 in 10.0 mi ESE 12.7 mph - N/A   Mostly Cloudy
2:53 PM 82.9 °F 88.8 °F 73.0 °F 72% 29.88 in 10.0 mi ESE 13.8 mph - N/A   Mostly Cloudy
3:53 PM 82.0 °F 87.4 °F 73.0 °F 74% 29.87 in 10.0 mi SE 11.5 mph - N/A   Mostly Cloudy
4:53 PM 82.0 °F 87.4 °F 73.0 °F 74% 29.87 in 10.0 mi SE 9.2 mph - N/A   Mostly Cloudy
5:53 PM 81.0 °F 85.2 °F 72.0 °F 74% 29.88 in 10.0 mi SE 9.2 mph - N/A   Mostly Cloudy
6:53 PM 80.1 °F 84.2 °F 73.0 °F 79% 29.88 in 10.0 mi SE 10.4 mph - N/A   Mostly Cloudy
7:53 PM 79.0 °F - 73.0 °F 82% 29.90 in 10.0 mi SSE 4.6 mph - N/A   Mostly Cloudy
8:53 PM 80.1 °F 84.2 °F 73.0 °F 79% 29.92 in 10.0 mi Calm Calm - N/A   Mostly Cloudy
9:53 PM 80.1 °F 84.2 °F 73.0 °F 79% 29.93 in 10.0 mi Calm Calm - N/A   Mostly Cloudy
10:53 PM 75.9 °F - 72.0 °F 87% 29.94 in 10.0 mi Calm Calm - N/A   Mostly Cloudy
11:53 PM 78.1 °F - 73.9 °F 87% 29.94 in 10.0 mi East 4.6 mph - N/A   Mostly Cloudy